This demonstration page uses our WeatherBlox Daily Observations layout. Learn more.

Left ArrowRight Arrow

30.21309, -93.2044

Hourly Observations for January 3, 2022

Temp ( °F °C ) Dew Point ( °F °C ) Humidity (%) Winds ( mph kmh ) Pressure ( in mb ) Visibility ( mi km ) Precip ( " mm )
12:15 am 00:15 Clear 30 -1.1 23 -4.8 76 76 NNW 12 19 30.43 1031 10 16 0.00 0.00
12:35 am 00:35 Clear 30 -1.2 23 -4.8 77 77 NNW 9 15 30.43 1031 10 16 0.00 0.00
12:55 am 00:55 Clear 30 -1.2 23 -4.9 76 76 NNW 9 15 30.44 1031 10 16 0.00 0.00
1:15 am 01:15 Clear 30 -1.2 23 -4.9 76 76 NNW 8 13 30.44 1031 10 16 0.00 0.00
1:35 am 01:35 Clear 30 -1.2 23 -5 76 76 NNW 7 11 30.45 1031 10 16 0.00 0.00
1:55 am 01:55 Clear 29 -1.5 23 -5 77 77 N 8 13 30.45 1031 10 16 0.00 0.00
2:15 am 02:15 Clear 29 -1.4 23 -5.2 76 76 N 8 13 30.45 1031 10 16 0.00 0.00
2:35 am 02:35 Clear 30 -1.3 22 -5.3 75 75 N 10 17 30.44 1031 10 16 0.00 0.00
2:55 am 02:55 Clear 29 -1.4 22 -5.3 75 75 N 7 11 30.44 1031 10 16 0.00 0.00
3:15 am 03:15 Clear 29 -1.7 23 -5.1 78 78 N 7 11 30.44 1031 10 16 0.00 0.00
3:35 am 03:35 Clear 29 -1.6 22 -5.3 76 76 N 7 11 30.44 1031 10 16 0.00 0.00
3:55 am 03:55 Clear 29 -1.8 22 -5.4 77 77 N 8 13 30.44 1031 10 16 0.00 0.00
4:15 am 04:15 Clear 29 -1.8 22 -5.7 75 75 N 7 11 30.45 1031 10 16 0.00 0.00
4:35 am 04:35 Clear 29 -1.8 22 -5.8 74 74 N 7 11 30.44 1031 10 16 0.00 0.00
4:55 am 04:55 Clear 28 -2 22 -5.7 76 76 N 7 11 30.45 1031 10 16 0.00 0.00
5:15 am 05:15 Clear 28 -2.1 22 -5.8 76 76 N 7 11 30.44 1031 10 16 0.00 0.00
5:35 am 05:35 Clear 29 -1.8 21 -6.1 73 73 N 6 9 30.45 1031 10 16 0.00 0.00
6:00 am 06:00 Mostly Clear 28 -2 21 -6 74 74 N 8 13 30.46 1032 10 16 0.00 0.00
6:49 am 06:49 Mostly Clear 28 -2 21 -6 74 74 N 7 11 30.48 1032 10 16 0.00 0.00
7:50 am 07:50 Mostly Sunny 28 -2 21 -6 74 74 N 7 11 30.51 1033 10 16 0.00 0.00
8:46 am 08:46 Mostly Sunny 32 0 21 -6 64 64 NNE 8 13 30.52 1034 10 16 0.00 0.00
9:53 am 09:53 Mostly Sunny 36 2 19 -7 52 52 NNE 10 17 30.52 1034 10 16 0.00 0.00
10:48 am 10:48 Mostly Sunny 39 4 19 -7 45 45 N 9 15 30.52 1034 10 16 0.00 0.00
11:49 am 11:49 Mostly Sunny 43 6 19 -7 39 39 NNW 10 17 30.49 1033 10 16 0.00 0.00
12:55 pm 12:55 Mostly Sunny 46 8 19 -7 34 34 N 12 19 30.44 1031 10 16 0.00 0.00
1:45 pm 13:45 Mostly Sunny 48 9 18 -8 29 29 NNW 13 20 30.42 1030 10 16 0.00 0.00
2:50 pm 14:50 Mostly Sunny 50 10 18 -8 28 28 N 7 11 30.40 1029 10 16 0.00 0.00
3:53 pm 15:53 Mostly Sunny 50 10 16 -9 25 25 NNE 12 19 30.39 1029 10 16 0.00 0.00
4:47 pm 16:47 Mostly Sunny 48 9 18 -8 29 29 NNW 5 7 30.40 1029 10 16 0.00 0.00
5:50 pm 17:50 Mostly Clear 46 8 18 -8 32 32 NNE 3 6 30.40 1029 10 16 0.00 0.00
6:50 pm 18:50 Mostly Clear 43 6 21 -6 42 42 Calm 30.40 1029 10 16 0.00 0.00
7:55 pm 19:55 Mostly Clear 39 4 27 -3 61 61 Calm 30.40 1029 10 16 0.00 0.00
8:55 pm 20:55 Mostly Clear 36 2 28 -2 75 75 Calm 30.40 1029 10 16 0.00 0.00
9:50 pm 21:50 Mostly Clear 36 2 28 -2 75 75 Calm 30.39 1029 10 16 0.00 0.00
10:15 pm 22:15 Clear 36 2.1 28 -2.5 72 72 Calm 30.39 1029 10 16 0.00 0.00
10:35 pm 22:35 Clear 37 2.5 28 -2.2 71 71 Calm 30.39 1029 10 16 0.00 0.00
10:55 pm 22:55 Clear 36 2.2 28 -2.1 74 74 Calm 30.39 1029 10 16 0.00 0.00
11:15 pm 23:15 Clear 36 2.2 29 -1.7 76 76 Calm 30.38 1029 10 16 0.00 0.00
11:35 pm 23:35 Clear 35 1.7 28 -2.5 74 74 Calm 30.37 1028 10 16 0.00 0.00
11:55 pm 23:55 Clear 35 1.4 29 -1.9 79 79 Calm 30.36 1028 10 16 0.00 0.00

Powered by AerisWeather